| time (UTC) | temp C | wind direction | speed KPH | gust KPH | rain 1hr cm | rain 24hr cm | rain mn cm | humidity % | barometer mb |
| 20260506113842 | 10 | 51 | 17.7 | 29.0 | 0.00 | 0.00 | 0.00 | 72 | 1008.8 |
| 20260506113531 | 10 | 49 | 25.7 | 29.0 | 0.00 | 0.00 | 0.00 | 70 | 1008.8 |
| 20260506112841 | 10 | 51 | 19.3 | 24.1 | 0.00 | 0.00 | 0.00 | 70 | 1008.8 |
| 20260506112344 | 10 | 52 | 16.1 | 24.1 | 0.00 | 0.00 | 0.00 | 72 | 1008.8 |
| 20260506111841 | 10 | 51 | 17.7 | 24.1 | 0.00 | 0.00 | 0.00 | 71 | 1008.7 |
| 20260506111344 | 10 | 38 | 14.5 | 22.5 | 0.00 | 0.00 | 0.00 | 71 | 1008.7 |
| 20260506110839 | 10 | 27 | 16.1 | 27.4 | 0.00 | 0.00 | 0.00 | 72 | 1008.7 |
| 20260506110338 | 10 | 46 | 20.9 | 27.4 | 0.00 | 0.00 | 0.00 | 70 | 1008.6 |
| 20260506105839 | 10 | 39 | 12.9 | 29.0 | 0.00 | 0.00 | 0.00 | 72 | 1008.6 |
| 20260506105339 | 10 | 61 | 22.5 | 29.0 | 0.00 | 0.00 | 0.00 | 69 | 1008.7 |
| 20260506104838 | 10 | 61 | 16.1 | 27.4 | 0.00 | 0.00 | 0.00 | 72 | 1008.6 |
| 20260506104338 | 10 | 42 | 14.5 | 27.4 | 0.00 | 0.00 | 0.00 | 70 | 1008.6 |
| 20260506103839 | 10 | 46 | 16.1 | 29.0 | 0.00 | 0.00 | 0.00 | 71 | 1008.6 |
| 20260506102838 | 10 | 42 | 20.9 | 29.0 | 0.00 | 0.00 | 0.00 | 69 | 1008.5 |
| 20260506102337 | 10 | 55 | 22.5 | 29.0 | 0.00 | 0.00 | 0.00 | 68 | 1008.6 |
| 20260506101838 | 10 | 58 | 17.7 | 27.4 | 0.00 | 0.00 | 0.00 | 69 | 1008.5 |
| 20260506101337 | 10 | 56 | 16.1 | 25.7 | 0.00 | 0.00 | 0.00 | 70 | 1008.4 |
| 20260506100838 | 10 | 37 | 20.9 | 30.6 | 0.00 | 0.00 | 0.00 | 68 | 1008.5 |
| 20260506095836 | 10 | 62 | 19.3 | 27.4 | 0.00 | 0.00 | 0.00 | 68 | 1008.4 |
| 20260506095336 | 10 | 55 | 20.9 | 32.2 | 0.00 | 0.00 | 0.00 | 67 | 1008.4 |
| 20260506094337 | 10 | 49 | 24.1 | 29.0 | 0.00 | 0.00 | 0.00 | 67 | 1008.4 |
| 20260506093840 | 10 | 45 | 22.5 | 30.6 | 0.00 | 0.00 | 0.00 | 67 | 1008.3 |
| 20260506093335 | 10 | 46 | 20.9 | 30.6 | 0.00 | 0.00 | 0.00 | 68 | 1008.3 |
| 20260506092836 | 10 | 52 | 14.5 | 22.5 | 0.00 | 0.00 | 0.00 | 70 | 1008.2 |
| 20260506091835 | 10 | 44 | 17.7 | 29.0 | 0.00 | 0.00 | 0.00 | 68 | 1008.3 |
| 20260506091335 | 10 | 39 | 17.7 | 27.4 | 0.00 | 0.00 | 0.00 | 70 | 1008.1 |
| 20260506090847 | 10 | 42 | 20.9 | 27.4 | 0.00 | 0.00 | 0.00 | 69 | 1008.1 |
| 20260506090333 | 10 | 54 | 16.1 | 27.4 | 0.00 | 0.00 | 0.00 | 69 | 1008.1 |
| 20260506085832 | 10 | 35 | 19.3 | 27.4 | 0.00 | 0.00 | 0.00 | 70 | 1008.1 |
| 20260506084832 | 10 | 52 | 17.7 | 32.2 | 0.00 | 0.00 | 0.00 | 71 | 1008.1 |
| 20260506083832 | 10 | 42 | 14.5 | 27.4 | 0.00 | 0.00 | 0.00 | 73 | 1008.0 |
| 20260506083332 | 10 | 37 | 19.3 | 27.4 | 0.00 | 0.00 | 0.00 | 72 | 1008.0 |
| 20260506082832 | 10 | 44 | 16.1 | 27.4 | 0.00 | 0.00 | 0.00 | 73 | 1007.8 |
| 20260506081832 | 10 | 31 | 17.7 | 27.4 | 0.00 | 0.00 | 0.00 | 73 | 1007.9 |
| 20260506081332 | 10 | 52 | 19.3 | 27.4 | 0.00 | 0.00 | 0.00 | 74 | 1007.9 |
| 20260506080831 | 10 | 44 | 17.7 | 25.7 | 0.00 | 0.00 | 0.00 | 74 | 1007.8 |
| 20260506080330 | 10 | 54 | 19.3 | 25.7 | 0.00 | 0.00 | 0.00 | 74 | 1007.8 |
| 20260506073330 | 10 | 41 | 17.7 | 27.4 | 0.00 | 0.00 | 0.00 | 79 | 1007.7 |
| 20260506072831 | 10 | 31 | 16.1 | 25.7 | 0.00 | 0.00 | 0.00 | 79 | 1007.7 |
| 20260506072330 | 10 | 48 | 19.3 | 25.7 | 0.00 | 0.00 | 0.00 | 78 | 1007.7 |
| 20260506070831 | 10 | 35 | 17.7 | 25.7 | 0.00 | 0.00 | 0.00 | 77 | 1007.6 |
| 20260506070330 | 10 | 37 | 19.3 | 30.6 | 0.00 | 0.00 | 0.00 | 77 | 1007.6 |
| 20260506062328 | 9 | 28 | 14.5 | 22.5 | 0.00 | 0.00 | 0.00 | 77 | 1007.6 |
| 20260506061828 | 9 | 35 | 14.5 | 19.3 | 0.00 | 0.00 | 0.00 | 77 | 1007.4 |
| 20260506061328 | 9 | 28 | 14.5 | 19.3 | 0.00 | 0.00 | 0.00 | 77 | 1007.5 |
| 20260506060830 | 9 | 27 | 14.5 | 20.9 | 0.00 | 0.00 | 0.00 | 77 | 1007.4 |
| 20260506060330 | 9 | 24 | 14.5 | 20.9 | 0.00 | 0.00 | 0.00 | 77 | 1007.5 |
| 20260506051323 | 9 | 41 | 9.7 | 14.5 | 0.00 | 0.00 | 0.00 | 81 | 1007.4 |
| 20260506050822 | 9 | 46 | 11.3 | 19.3 | 0.00 | 0.00 | 0.00 | 81 | 1007.4 |
| 20260506043819 | 9 | 31 | 12.9 | 19.3 | 0.00 | 0.00 | 0.00 | 80 | 1007.3 |
| 20260506043320 | 9 | 28 | 14.5 | 19.3 | 0.00 | 0.00 | 0.00 | 80 | 1007.3 |
| 20260506042317 | 9 | 32 | 16.1 | 22.5 | 0.00 | 0.00 | 0.00 | 80 | 1007.2 |
| 20260506041817 | 9 | 24 | 17.7 | 22.5 | 0.00 | 0.00 | 0.00 | 81 | 1007.2 |
| 20260506041317 | 9 | 31 | 16.1 | 20.9 | 0.00 | 0.00 | 0.00 | 81 | 1007.2 |
| 20260506040320 | 9 | 25 | 16.1 | 24.1 | 0.00 | 0.00 | 0.00 | 82 | 1007.3 |
| 20260506035816 | 9 | 30 | 16.1 | 24.1 | 0.00 | 0.00 | 0.00 | 82 | 1007.2 |
| 20260506035318 | 9 | 28 | 16.1 | 24.1 | 0.00 | 0.00 | 0.00 | 82 | 1007.1 |
| 20260506034819 | 9 | 28 | 17.7 | 24.1 | 0.00 | 0.00 | 0.00 | 82 | 1007.1 |
| 20260506034318 | 9 | 13 | 19.3 | 24.1 | 0.00 | 0.00 | 0.00 | 83 | 1007.2 |
| 20260506033817 | 9 | 27 | 14.5 | 24.1 | 0.00 | 0.00 | 0.00 | 83 | 1007.3 |
| 20260506033320 | 9 | 28 | 17.7 | 24.1 | 0.00 | 0.00 | 0.00 | 84 | 1007.3 |
| 20260506032816 | 9 | 23 | 17.7 | 24.1 | 0.00 | 0.00 | 0.00 | 84 | 1007.3 |
| 20260506032315 | 9 | 24 | 17.7 | 25.7 | 0.00 | 0.00 | 0.00 | 84 | 1007.5 |
| 20260506031818 | 9 | 8 | 17.7 | 25.7 | 0.00 | 0.00 | 0.00 | 84 | 1007.5 |
| 20260506031316 | 9 | 21 | 19.3 | 24.1 | 0.00 | 0.00 | 0.00 | 84 | 1007.5 |
| 20260506030817 | 9 | 27 | 14.5 | 20.9 | 0.00 | 0.00 | 0.00 | 84 | 1007.5 |
| 20260506030315 | 9 | 14 | 16.1 | 20.9 | 0.00 | 0.00 | 0.00 | 85 | 1007.5 |
| 20260506025315 | 9 | 23 | 16.1 | 20.9 | 0.00 | 0.00 | 0.00 | 84 | 1007.6 |
| 20260506023818 | 9 | 15 | 14.5 | 20.9 | 0.00 | 0.00 | 0.00 | 85 | 1007.6 |
| 20260506022814 | 9 | 18 | 14.5 | 19.3 | 0.00 | 0.00 | 0.00 | 84 | 1007.6 |
| 20260506022314 | 9 | 25 | 16.1 | 20.9 | 0.00 | 0.00 | 0.00 | 84 | 1007.6 |
| 20260506021815 | 9 | 25 | 14.5 | 20.9 | 0.00 | 0.00 | 0.00 | 84 | 1007.7 |
| 20260506021314 | 9 | 30 | 14.5 | 17.7 | 0.00 | 0.00 | 0.00 | 84 | 1007.8 |
| 20260506020815 | 9 | 21 | 14.5 | 19.3 | 0.00 | 0.00 | 0.00 | 84 | 1007.7 |
| 20260506015816 | 9 | 15 | 12.9 | 17.7 | 0.00 | 0.00 | 0.00 | 84 | 1007.9 |
| 20260506014815 | 9 | 15 | 12.9 | 17.7 | 0.00 | 0.00 | 0.00 | 83 | 1008.0 |
| 20260506014314 | 9 | 10 | 12.9 | 19.3 | 0.00 | 0.00 | 0.00 | 83 | 1008.0 |
| 20260506013814 | 9 | 14 | 14.5 | 19.3 | 0.00 | 0.00 | 0.00 | 83 | 1008.1 |
| 20260506012813 | 9 | 20 | 14.5 | 19.3 | 0.00 | 0.00 | 0.00 | 83 | 1008.1 |
| 20260506012313 | 9 | 14 | 14.5 | 19.3 | 0.00 | 0.00 | 0.00 | 83 | 1008.1 |
| 20260506011814 | 9 | 8 | 12.9 | 20.9 | 0.00 | 0.00 | 0.00 | 83 | 1008.1 |
| 20260506011314 | 9 | 24 | 16.1 | 20.9 | 0.00 | 0.00 | 0.00 | 83 | 1008.1 |
| 20260506010814 | 9 | 7 | 12.9 | 19.3 | 0.00 | 0.00 | 0.00 | 83 | 1008.1 |
| 20260506010314 | 9 | 10 | 14.5 | 19.3 | 0.00 | 0.00 | 0.00 | 83 | 1008.2 |
| 20260506005312 | 9 | 14 | 14.5 | 17.7 | 0.00 | 0.00 | 0.00 | 82 | 1008.2 |
| 20260506004813 | 9 | 11 | 12.9 | 17.7 | 0.00 | 0.00 | 0.00 | 82 | 1008.3 |
| 20260506004312 | 9 | 11 | 11.3 | 17.7 | 0.00 | 0.00 | 0.00 | 82 | 1008.3 |
| 20260506003812 | 9 | 14 | 12.9 | 17.7 | 0.00 | 0.00 | 0.00 | 82 | 1008.4 |
| 20260506003315 | 9 | 11 | 11.3 | 19.3 | 0.00 | 0.00 | 0.00 | 82 | 1008.4 |
| 20260506002814 | 9 | 17 | 14.5 | 19.3 | 0.00 | 0.00 | 0.00 | 82 | 1008.4 |
| 20260506002317 | 9 | 28 | 12.9 | 19.3 | 0.00 | 0.00 | 0.00 | 82 | 1008.6 |
| 20260506000813 | 9 | 32 | 14.5 | 20.9 | 0.00 | 0.00 | 0.00 | 81 | 1008.6 |
| 20260506000312 | 9 | 24 | 14.5 | 20.9 | 0.00 | 0.00 | 0.00 | 81 | 1008.7 |
| 20260505235811 | 9 | 31 | 12.9 | 17.7 | 0.00 | 0.00 | 0.00 | 81 | 1008.7 |
| 20260505235311 | 9 | 30 | 11.3 | 19.3 | 0.00 | 0.00 | 0.00 | 81 | 1008.8 |
| 20260505234808 | 9 | 18 | 9.7 | 19.3 | 0.00 | 0.00 | 0.00 | 81 | 1008.8 |
| 20260505234310 | 9 | 14 | 14.5 | 19.3 | 0.00 | 0.00 | 0.00 | 81 | 1008.9 |
| 20260505233309 | 9 | 25 | 14.5 | 22.5 | 0.00 | 0.00 | 0.00 | 81 | 1008.9 |
| 20260505232810 | 9 | 24 | 14.5 | 20.9 | 0.00 | 0.00 | 0.00 | 80 | 1008.9 |
| 20260505232310 | 9 | 30 | 16.1 | 20.9 | 0.00 | 0.00 | 0.00 | 80 | 1009.0 |
| 20260505231809 | 9 | 21 | 17.7 | 20.9 | 0.00 | 0.00 | 0.00 | 80 | 1009.0 |
| 20260505230809 | 9 | 28 | 16.1 | 25.7 | 0.00 | 0.00 | 0.00 | 80 | 1009.0 |
| 20260505230308 | 9 | 21 | 16.1 | 22.5 | 0.00 | 0.00 | 0.00 | 80 | 1009.0 |
| 20260505225310 | 9 | 27 | 12.9 | 20.9 | 0.00 | 0.00 | 0.00 | 80 | 1009.0 |
| 20260505224808 | 9 | 25 | 16.1 | 27.4 | 0.00 | 0.00 | 0.00 | 80 | 1009.0 |
| 20260505224307 | 9 | 24 | 16.1 | 27.4 | 0.00 | 0.00 | 0.00 | 80 | 1009.1 |
| 20260505223812 | 9 | 17 | 12.9 | 24.1 | 0.00 | 0.00 | 0.00 | 80 | 1009.1 |
| 20260505223308 | 9 | 30 | 17.7 | 22.5 | 0.00 | 0.00 | 0.00 | 80 | 1009.2 |
| 20260505222810 | 9 | 17 | 17.7 | 27.4 | 0.00 | 0.00 | 0.00 | 80 | 1009.2 |
| 20260505222307 | 9 | 21 | 17.7 | 27.4 | 0.00 | 0.00 | 0.00 | 81 | 1009.2 |
| 20260505221808 | 9 | 32 | 16.1 | 22.5 | 0.00 | 0.00 | 0.00 | 81 | 1009.2 |
| 20260505221308 | 9 | 8 | 16.1 | 27.4 | 0.00 | 0.00 | 0.00 | 81 | 1009.2 |
| 20260505220809 | 9 | 14 | 17.7 | 27.4 | 0.00 | 0.00 | 0.00 | 80 | 1009.3 |
| 20260505220307 | 9 | 44 | 17.7 | 24.1 | 0.00 | 0.00 | 0.00 | 81 | 1009.3 |
| 20260505215809 | 9 | 21 | 17.7 | 25.7 | 0.00 | 0.00 | 0.00 | 81 | 1009.3 |
| 20260505215308 | 9 | 31 | 17.7 | 25.7 | 0.00 | 0.00 | 0.00 | 81 | 1009.3 |
| 20260505214806 | 9 | 18 | 19.3 | 22.5 | 0.00 | 0.00 | 0.00 | 81 | 1009.4 |
| 20260505214306 | 9 | 20 | 14.5 | 24.1 | 0.00 | 0.00 | 0.00 | 81 | 1009.4 |
| 20260505213807 | 9 | 17 | 16.1 | 24.1 | 0.00 | 0.00 | 0.00 | 81 | 1009.4 |
| 20260505213306 | 9 | 31 | 16.1 | 22.5 | 0.00 | 0.00 | 0.00 | 81 | 1009.5 |
| 20260505212809 | 9 | 10 | 16.1 | 22.5 | 0.00 | 0.00 | 0.00 | 81 | 1009.5 |
| 20260505212308 | 9 | 23 | 17.7 | 22.5 | 0.00 | 0.00 | 0.00 | 81 | 1009.5 |
| 20260505211306 | 9 | 27 | 17.7 | 24.1 | 0.00 | 0.00 | 0.00 | 81 | 1009.5 |
| 20260505210306 | 9 | 18 | 17.7 | 25.7 | 0.00 | 0.00 | 0.00 | 81 | 1009.6 |
| 20260505205306 | 9 | 28 | 20.9 | 25.7 | 0.00 | 0.03 | 0.00 | 81 | 1009.6 |
| 20260505204808 | 9 | 27 | 20.9 | 27.4 | 0.00 | 0.03 | 0.00 | 81 | 1009.7 |
| 20260505204307 | 9 | 15 | 16.1 | 27.4 | 0.00 | 0.03 | 0.00 | 81 | 1009.7 |
| 20260505203806 | 9 | 27 | 19.3 | 25.7 | 0.00 | 0.03 | 0.00 | 81 | 1009.8 |
| 20260505203312 | 9 | 18 | 17.7 | 22.5 | 0.00 | 0.03 | 0.00 | 81 | 1009.8 |
| 20260505202804 | 9 | 25 | 16.1 | 24.1 | 0.00 | 0.03 | 0.00 | 81 | 1009.8 |
| 20260505202310 | 9 | 21 | 19.3 | 24.1 | 0.00 | 0.03 | 0.00 | 81 | 1009.8 |
| 20260505201807 | 9 | 15 | 16.1 | 24.1 | 0.00 | 0.03 | 0.00 | 81 | 1009.9 |
| 20260505200804 | 9 | 20 | 17.7 | 22.5 | 0.00 | 0.03 | 0.00 | 81 | 1009.9 |
| 20260505200308 | 9 | 28 | 12.9 | 24.1 | 0.00 | 0.03 | 0.00 | 81 | 1009.8 |
| 20260505195804 | 10 | 27 | 14.5 | 24.1 | 0.00 | 0.03 | 0.00 | 81 | 1009.9 |
| 20260505195305 | 10 | 38 | 14.5 | 22.5 | 0.00 | 0.03 | 0.00 | 81 | 1009.8 |
| 20260505194803 | 10 | 24 | 14.5 | 22.5 | 0.00 | 0.03 | 0.00 | 81 | 1009.8 |
| 20260505194305 | 10 | 25 | 14.5 | 22.5 | 0.00 | 0.03 | 0.00 | 81 | 1009.8 |
| 20260505193802 | 10 | 30 | 17.7 | 22.5 | 0.00 | 0.03 | 0.00 | 81 | 1009.9 |
| 20260505193304 | 10 | 20 | 17.7 | 22.5 | 0.00 | 0.03 | 0.00 | 81 | 1009.8 |
| 20260505192803 | 10 | 28 | 16.1 | 25.7 | 0.00 | 0.03 | 0.00 | 81 | 1009.7 |
| 20260505192306 | 10 | 20 | 16.1 | 29.0 | 0.00 | 0.03 | 0.00 | 81 | 1009.6 |
| 20260505191805 | 10 | 20 | 17.7 | 29.0 | 0.00 | 0.03 | 0.00 | 81 | 1009.6 |
| 20260505191304 | 10 | 15 | 14.5 | 27.4 | 0.00 | 0.03 | 0.00 | 81 | 1009.6 |
| 20260505185803 | 10 | 37 | 24.1 | 33.8 | 0.00 | 0.03 | 0.00 | 81 | 1009.4 |
| 20260505185306 | 10 | 17 | 24.1 | 29.0 | 0.00 | 0.03 | 0.00 | 81 | 1009.3 |
| 20260505184803 | 10 | 31 | 19.3 | 29.0 | 0.00 | 0.03 | 0.00 | 81 | 1009.3 |
| 20260505184302 | 10 | 10 | 14.5 | 29.0 | 0.00 | 0.03 | 0.00 | 81 | 1009.3 |
| 20260505183809 | 10 | 23 | 22.5 | 29.0 | 0.00 | 0.03 | 0.00 | 81 | 1009.2 |
| 20260505181802 | 10 | 6 | 22.5 | 29.0 | 0.00 | 0.03 | 0.00 | 80 | 1009.3 |
| 20260505181303 | 10 | 18 | 17.7 | 25.7 | 0.00 | 0.03 | 0.00 | 80 | 1009.4 |
| 20260505175757 | 11 | 15 | 17.7 | 29.0 | 0.00 | 0.03 | 0.00 | 80 | 1009.4 |
| 20260505174757 | 11 | 13 | 24.1 | 32.2 | 0.00 | 0.03 | 0.00 | 79 | 1009.4 |
| 20260505173755 | 11 | 14 | 19.3 | 29.0 | 0.00 | 0.03 | 0.00 | 79 | 1009.3 |
| 20260505173257 | 11 | 28 | 24.1 | 32.2 | 0.00 | 0.03 | 0.00 | 78 | 1009.3 |
| 20260505171754 | 11 | 14 | 20.9 | 29.0 | 0.00 | 0.03 | 0.00 | 77 | 1009.4 |
| 20260505171257 | 11 | 11 | 22.5 | 29.0 | 0.00 | 0.03 | 0.00 | 76 | 1009.4 |
| 20260505170755 | 11 | 14 | 17.7 | 27.4 | 0.00 | 0.03 | 0.00 | 76 | 1009.4 |
| 20260505170253 | 11 | 23 | 17.7 | 24.1 | 0.00 | 0.03 | 0.00 | 76 | 1009.5 |
| 20260505165753 | 11 | 18 | 14.5 | 25.7 | 0.00 | 0.03 | 0.00 | 75 | 1009.5 |
| 20260505165254 | 11 | 20 | 19.3 | 25.7 | 0.00 | 0.03 | 0.00 | 76 | 1009.5 |
| 20260505164755 | 11 | 21 | 19.3 | 25.7 | 0.00 | 0.03 | 0.00 | 75 | 1009.5 |
| 20260505164251 | 11 | 7 | 17.7 | 27.4 | 0.00 | 0.03 | 0.00 | 76 | 1009.6 |
| 20260505163752 | 11 | 13 | 22.5 | 27.4 | 0.00 | 0.03 | 0.00 | 75 | 1009.5 |
| 20260505163258 | 11 | 27 | 19.3 | 27.4 | 0.00 | 0.03 | 0.00 | 76 | 1009.6 |
| 20260505162752 | 11 | 11 | 19.3 | 29.0 | 0.00 | 0.03 | 0.00 | 76 | 1009.5 |
| 20260505161753 | 11 | 20 | 19.3 | 30.6 | 0.00 | 0.03 | 0.00 | 76 | 1009.6 |
| 20260505161253 | 11 | 17 | 22.5 | 32.2 | 0.00 | 0.03 | 0.00 | 76 | 1009.6 |
| 20260505160750 | 11 | 6 | 24.1 | 32.2 | 0.00 | 0.03 | 0.00 | 76 | 1009.6 |
| 20260505160252 | 11 | 13 | 20.9 | 32.2 | 0.00 | 0.03 | 0.00 | 77 | 1009.7 |
| 20260505153250 | 11 | 24 | 24.1 | 30.6 | 0.00 | 0.03 | 0.00 | 77 | 1009.7 |
| 20260505152744 | 11 | 18 | 17.7 | 25.7 | 0.00 | 0.03 | 0.00 | 78 | 1009.8 |
| 20260505152250 | 11 | 21 | 20.9 | 25.7 | 0.00 | 0.03 | 0.00 | 77 | 1009.7 |
| 20260505151743 | 11 | 7 | 22.5 | 25.7 | 0.00 | 0.03 | 0.00 | 78 | 1009.9 |
| 20260505151247 | 11 | 30 | 16.1 | 27.4 | 0.00 | 0.03 | 0.00 | 79 | 1009.9 |
| 20260505150742 | 11 | 23 | 16.1 | 27.4 | 0.00 | 0.03 | 0.00 | 79 | 1009.9 |
| 20260505140246 | 11 | 27 | 17.7 | 22.5 | 0.00 | 0.03 | 0.00 | 80 | 1010.3 |
| 20260505124739 | 11 | 18 | 16.1 | 22.5 | 0.00 | 0.03 | 0.00 | 79 | 1010.7 |
| 20260505124241 | 11 | 35 | 16.1 | 20.9 | 0.00 | 0.03 | 0.00 | 81 | 1010.8 |
| 20260505123739 | 11 | 27 | 16.1 | 19.3 | 0.00 | 0.03 | 0.00 | 80 | 1010.9 |
| 20260505123242 | 11 | 28 | 14.5 | 19.3 | 0.00 | 0.03 | 0.00 | 80 | 1011.0 |
| 20260505122255 | 10 | 35 | 16.1 | 20.9 | 0.00 | 0.03 | 0.00 | 80 | 1011.0 |
| 20260505121738 | 10 | 54 | 16.1 | 20.9 | 0.00 | 0.15 | 0.00 | 80 | 1010.9 |
| 20260505121241 | 11 | 48 | 14.5 | 20.9 | 0.00 | 0.23 | 0.00 | 80 | 1010.9 |
| 20260505120738 | 11 | 35 | 12.9 | 20.9 | 0.00 | 0.30 | 0.00 | 80 | 1010.9 |
| 20260505115336 | 11 | 30 | 14.5 | 20.9 | 0.00 | 0.30 | 0.00 | 80 | 1010.9 |
| 20260505114732 | 11 | 27 | 12.9 | 20.9 | 0.00 | 0.30 | 0.00 | 81 | 1010.9 |